Regional Weather Roundup
Issued by NWS

Home | Current Version | Previous Version | Graphics & Text | Print | Product List | Glossary On
Versions: 1 2 3 4 5 6 7 8 9 10 11 12 13 14 15 16 17 18 19 20 21 22 23 24 25 26 27 28 29 30 31 32 33 34 35 36 37 38 39 40 41 42 43 44 45 46 47 48 49 50
000
ASUS45 KCYS 301310
RWRWY

WYOMING REGIONAL WEATHER ROUNDUP
NATIONAL WEATHER SERVICE CHEYENNE WY
700 AM MDT WED JUL 30 2014

NOTE:  "FAIR" INDICATES FEW OR NO CLOUDS BELOW 12,000 FEET
WITH NO SIGNIFICANT WEATHER AND/OR OBSTRUCTIONS TO VISIBILITY.

WYZ001-301400-
YELLOWSTONE NATIONAL PARK

CITY           SKY/WX    TMP DP  RH WIND       PRES   REMARKS
LK YELLOWSTONE   N/A     41  39  93 CALM      30.48S
W YELLOWSTONE  NOT AVBL

$$
WYZ002>013-054>058-071-098>099-301400-
NORTHERN WYOMING

CITY           SKY/WX    TMP DP  RH WIND       PRES   REMARKS
JACKSON        CLEAR     50  46  87 CALM      30.37R
CODY           NOT AVBL
GREYBULL       MOCLDY    55  50  83 SE5       30.28R
WORLAND        MOCLDY    56  54  93 S6        30.29R
SHERIDAN       MOSUNNY   55  49  80 N3        30.27R
BUFFALO        MOSUNNY   62  43  49 W8        30.31S
GILLETTE       MOSUNNY   61  51  70 CALM      30.27S
HULETT         FAIR      57  54  88 MISG      30.28
NEWCASTLE      FAIR      55  54  94 N5        30.29

$$
WYZ014>020-022>026-101>103-301400-
CENTRAL WYOMING

CITY           SKY/WX    TMP DP  RH WIND       PRES   REMARKS
BIG PINEY      CLOUDY    55  53  93 CALM      30.38S
PINEDALE       CLOUDY    52  50  93 NW5       30.39S
DUBOIS         PTSUNNY   45  43  93 NW7       30.43R
LANDER         CLOUDY    58  56  93 CALM      30.35R
RIVERTON       CLOUDY    56  54  93 CALM      30.35S
CASPER         CLOUDY    54  52  93 CALM      30.34R
DOUGLAS        CLOUDY    56  54  93 CALM      30.33R

$$
WYZ021-027>030-104>119-301400-
SOUTHERN WYOMING

CITY           SKY/WX    TMP DP  RH WIND       PRES   REMARKS
EVANSTON       CLOUDY    55  53  93 E8        30.35R
KEMMERER       LGT RAIN N/A N/A N/A E3        30.39R
FORT BRIDGER   CLOUDY    55  55 100 E10       30.38S
ROCK SPRINGS   CLOUDY    56  51  84 NE14      30.36R
DIXON          CLOUDY    58  55  91 NE3       30.32S
RAWLINS        LGT RAIN  54  52  93 NE15      30.36R
SARATOGA       RAIN      54  52  94 CALM      30.36S
LARAMIE        LGT RAIN  53  51  93 E5        30.38R
CHEYENNE       LGT RAIN  56  54  93 CALM      30.34S
TORRINGTON     CLOUDY    60  57  89 CALM      30.27S
PINE BLUFFS    DRIZZLE   59  59 100 CALM      30.31S

$$



USA.gov is the U.S. government's official web portal to all federal, state and local government web resources and services.